GFSCGP_prec_cthk_171.txt.gz
RH
46 49 49 50 55 57 62 65 65 64 68 65 63 55 52 61 61 57 48 48 43 34 31 30 27 38 53 64 78 91 86 87 85 77 57 38 28 24 20 17 16 16 16 15
51 51 46 51 57 65 67 70 69 61 70 72 63 51 59 55 53 49 46 46 38 34 34 30 28 35 54 72 79 87 88 89 85 76 56 38 29 25 22 19 17 17 17 16
54 47 50 57 61 70 69 75 72 70 69 68 62 49 52 55 51 48 36 34 34 30 29 29 30 38 55 75 82 95 86 88 87 77 54 39 30 26 23 21 19 19 18 16
53 50 55 62 69 74 75 70 71 73 78 75 77 64 47 54 58 55 42 32 29 29 27 26 27 40 50 79 89 99 89 91 92 78 56 41 30 26 26 25 21 20 19 18
51 53 57 67 67 75 75 79 79 78 80 79 73 86 56 61 59 64 59 41 30 28 24 24 22 35 53 87 95 99 95 98 90 76 58 44 34 29 30 29 23 21 20 19
54 55 59 62 69 78 80 81 75 76 79 80 72 83 62 66 69 70 68 56 39 28 23 24 24 37 63 91 92 94 97 92 92 70 59 47 36 32 31 33 26 22 22 22
56 51 56 65 73 76 89 89 86 82 81 76 73 85 65 70 81 79 70 66 51 37 27 26 26 37 57 91 95 95 97 91 84 75 57 47 40 35 34 36 28 24 24 23
70 59 57 65 77 80 85 92 98 96 85 71 73 81 64 74 80 81 76 73 60 46 32 28 28 35 57 89 95 92 95 90 77 80 68 49 43 39 40 40 33 27 26 25
74 64 52 65 73 83 84 92 88 95 88 88 75 66 67 76 79 80 78 79 62 46 36 32 33 43 56 85 93 98 95 90 76 74 77 57 48 43 45 42 38 30 28 26
71 70 50 61 70 77 84 86 93 93 94 91 81 73 86 78 78 83 90 84 71 52 42 38 40 49 54 81 94 98 93 82 88 85 86 69 55 50 49 50 41 35 28 27
73 75 53 59 72 75 85 92 96 95 95 97 89 70 80 78 93 95 89 85 73 54 46 42 48 54 59 83 97 97 92 86 89 84 78 73 63 60 56 48 44 38 30 29
70 71 63 55 65 74 80 86 90 97 91 95 96 73 76 89 93 95 83 79 69 59 52 55 56 62 77 97 96 98 89 77 77 70 68 69 63 59 54 51 45 34 32 29
70 69 69 49 65 70 79 82 86 88 93 87 97 74 72 84 89 86 84 88 77 65 62 65 62 66 85 95 98 96 82 77 81 79 68 62 61 58 53 49 42 35 31 31
69 66 60 64 64 72 81 80 84 87 92 80 82 79 76 78 80 88 86 89 92 90 78 68 74 88 95 98 99 96 85 78 80 75 70 68 65 57 52 46 40 34 30 32
69 69 59 61 67 71 75 75 73 80 75 83 70 75 71 76 90 93 90 91 88 88 85 82 81 90 92 98 98 93 87 86 85 79 74 69 61 55 51 44 34 34 35 29
71 71 57 60 63 66 68 65 64 64 67 74 74 71 68 76 93 94 92 91 86 86 88 84 88 95 94 96 94 91 88 92 92 83 81 74 60 54 46 37 33 34 29 25
70 69 60 64 63 64 60 58 56 57 62 67 70 62 61 74 94 94 85 84 83 88 85 87 92 94 94 88 87 85 90 94 86 78 77 64 51 41 38 35 33 29 25 25
70 71 61 70 66 65 55 54 53 58 61 60 59 57 70 78 96 96 93 94 88 88 88 89 93 92 85 94 90 88 88 87 83 70 64 52 42 37 37 34 29 26 26 26
71 74 63 70 73 63 53 48 50 57 59 54 59 52 64 68 89 96 88 97 88 86 85 84 86 91 94 91 89 86 82 75 66 60 49 41 39 39 34 29 27 27 26 28
71 75 66 70 71 69 51 45 49 53 59 52 60 53 55 61 78 85 93 96 86 81 84 83 85 86 89 85 80 71 65 62 52 45 41 42 39 33 31 28 28 27 32 35
73 81 72 70 68 63 53 50 45 51 53 50 59 55 51 55 62 77 86 93 83 83 79 78 77 77 75 71 67 61 52 47 44 43 41 38 35 32 29 28 31 34 36 40
59 75 81 68 72 61 48 45 44 42 46 49 54 55 53 48 53 66 79 91 89 84 82 80 73 70 66 59 52 47 44 43 43 41 39 36 32 30 31 33 36 39 38 26
47 56 63 61 50 42 43 42 42 41 44 46 49 55 55 48 45 57 64 67 69 71 69 66 60 56 51 48 44 43 44 43 41 38 36 34 33 32 36 39 42 31 27 25
37 46 57 57 48 40 41 40 44 40 42 45 48 54 54 46 45 50 54 55 55 58 57 55 52 49 47 47 45 43 41 40 39 40 38 33 34 39 43 41 28 27 24 22
34 40 48 52 52 47 43 41 39 39 44 45 47 52 52 50 48 48 51 51 49 50 49 47 45 43 42 42 43 43 45 45 42 37 34 38 42 46 36 30 26 23 22 23
34 35 43 51 51 50 53 45 41 41 44 45 50 50 48 50 53 50 49 49 51 51 50 50 48 47 47 47 47 47 45 39 37 38 41 46 48 36 29 25 22 23 25 26

GFSCGP_prec_cthk_174.txt.gz
RH
44 49 49 42 46 47 49 56 56 49 56 59 53 43 39 35 40 39 38 40 40 37 33 39 36 33 32 27 30 38 68 87 98 84 79 74 55 37 26 21 19 18 17 16
48 51 44 46 49 53 55 63 60 50 60 65 57 38 39 41 38 40 41 42 42 39 36 41 40 35 37 32 33 43 62 74 91 95 93 82 56 36 27 23 21 19 19 17
49 45 48 52 52 57 58 65 58 66 65 70 62 42 34 44 47 48 49 47 43 37 37 42 40 37 39 34 39 45 68 73 82 93 91 82 55 35 28 25 22 21 20 18
50 50 53 53 56 59 66 57 63 71 83 78 76 66 41 44 51 57 56 61 57 39 36 37 37 43 38 30 42 51 73 82 91 96 91 80 54 35 29 26 24 23 22 19
51 53 57 57 55 59 61 63 67 73 80 85 72 85 40 47 51 54 61 70 72 48 35 35 36 42 37 36 40 57 76 86 79 93 92 73 48 36 31 28 26 26 24 21
53 58 60 56 55 57 63 68 63 75 83 84 62 75 45 51 55 60 65 72 76 66 34 34 36 43 40 41 47 63 77 90 92 98 84 64 47 37 32 30 29 28 26 26
50 57 58 58 58 57 71 77 76 79 88 73 65 73 54 54 61 67 64 70 74 74 41 33 33 41 37 41 53 72 92 86 96 97 75 61 50 42 37 34 31 30 29 30
62 65 56 56 57 61 68 81 94 90 76 73 58 66 49 55 65 71 76 77 76 73 62 34 31 39 36 46 64 82 93 89 95 96 74 60 52 47 41 36 33 33 30 33
58 66 59 53 48 61 77 84 82 93 74 83 61 57 58 61 70 77 86 87 83 78 69 44 39 34 35 50 69 89 94 91 94 89 76 60 60 48 43 38 36 33 32 36
56 68 59 51 48 59 74 80 94 90 89 75 57 53 66 65 80 88 93 91 84 83 63 53 44 36 40 56 76 98 99 98 91 90 81 66 54 51 48 42 39 37 39 39
59 69 64 55 47 55 72 80 90 96 89 85 73 55 66 78 83 93 95 85 87 84 64 53 47 39 46 57 73 99 96 94 92 91 86 79 71 55 51 47 44 40 43 38
55 69 76 52 43 53 66 73 82 94 85 83 91 65 73 75 79 88 90 83 82 77 62 53 49 45 54 57 79 98 94 89 83 85 89 83 83 68 57 53 50 48 48 46
56 71 77 46 44 52 60 68 75 82 90 79 90 65 68 72 75 90 92 89 74 65 61 55 55 61 63 62 73 99 97 94 93 94 91 83 73 67 66 60 55 53 49 45
59 69 71 56 47 49 56 62 69 77 87 71 71 65 65 69 80 89 93 91 77 68 64 59 60 66 63 64 66 84 93 95 95 92 87 83 75 65 68 69 64 55 50 39
61 66 68 53 52 58 61 61 63 70 72 80 63 69 63 70 86 94 94 95 87 75 71 75 70 65 63 67 72 92 97 97 95 84 76 74 71 70 65 61 52 45 41 37
62 66 69 52 45 56 61 58 57 59 62 66 67 64 60 87 97 92 96 97 98 97 89 79 76 84 87 87 90 96 97 96 89 85 77 70 70 71 67 61 52 43 38 33
59 65 69 50 47 52 56 52 50 53 58 58 63 56 62 86 92 91 91 93 98 93 91 92 92 96 96 97 96 97 97 97 95 89 83 81 76 66 60 50 46 43 38 36
58 64 72 57 51 48 46 45 46 52 56 54 60 57 64 86 97 88 82 87 91 88 90 95 99 98 97 94 96 95 98 96 95 94 91 85 74 66 56 52 43 38 34 33
56 62 69 65 54 47 48 42 47 48 54 53 59 56 55 71 91 95 89 91 88 85 89 97 98 99 97 98 97 96 97 96 95 93 87 77 67 54 46 41 38 35 32 29
58 64 70 68 62 45 46 44 46 46 51 51 56 60 54 63 82 88 97 89 91 90 90 93 94 95 97 98 98 98 97 94 90 82 74 61 55 51 43 39 35 32 30 30
61 65 74 78 64 46 45 49 44 44 44 48 52 58 59 53 69 84 96 86 80 82 86 92 93 95 98 98 98 96 93 83 75 66 53 47 43 39 36 35 32 30 34 38
53 56 69 76 70 54 42 44 44 41 39 45 49 56 57 51 60 78 95 87 80 79 85 89 90 94 93 93 90 80 74 65 55 51 48 45 40 39 35 32 34 37 40 35
44 39 49 59 56 45 39 41 44 42 43 46 47 53 55 51 52 78 88 92 85 81 81 77 76 78 77 74 70 63 53 47 45 46 45 42 38 36 35 36 40 41 34 27
42 37 41 50 49 49 41 42 41 44 42 43 44 51 54 49 49 67 75 82 85 83 81 73 68 64 61 57 51 46 45 47 46 44 43 41 39 36 40 46 40 32 27 28
36 37 35 42 46 49 47 46 45 43 43 46 45 49 53 52 50 54 59 62 66 64 62 60 57 54 51 49 48 49 47 45 45 46 45 40 39 44 46 38 31 27 32 33
35 35 32 32 44 49 51 47 49 45 43 44 49 48 49 50 56 53 50 53 54 55 53 52 51 47 45 45 46 46 48 50 50 44 39 42 46 48 39 31 30 33 33 29

GFSCGP_prec_cthk_180.txt.gz
RH
33 37 46 35 35 38 43 46 48 43 41 42 41 38 32 31 33 36 35 36 37 36 35 36 33 31 29 28 29 30 26 25 23 20 22 40 69 91 95 96 87 64 37 27
34 41 33 34 36 41 46 49 47 42 40 43 40 38 36 34 37 38 38 38 39 39 41 40 38 36 35 33 30 32 29 29 28 26 25 32 51 87 95 94 90 67 41 30
34 31 31 34 38 43 48 49 47 46 43 47 46 39 35 35 38 40 40 41 46 45 42 42 40 45 43 40 37 35 33 36 35 36 33 38 48 70 92 93 90 68 43 31
31 30 33 37 41 43 54 41 43 46 56 62 63 65 46 41 41 45 50 54 54 47 45 46 46 44 51 49 40 35 34 43 46 39 35 38 45 60 81 90 88 66 41 32
31 30 36 40 39 41 46 44 48 50 55 63 55 81 46 47 43 45 50 52 56 56 55 50 49 47 47 55 45 37 36 43 50 50 38 40 47 63 85 92 86 64 42 32
31 29 35 38 38 43 46 51 46 49 63 71 60 86 48 48 48 51 56 59 62 63 61 56 57 55 50 59 48 41 42 50 53 53 47 48 53 79 92 94 85 62 40 32
31 30 34 39 42 44 51 56 69 73 72 68 52 57 46 46 57 57 59 62 62 61 62 69 69 72 65 62 52 44 46 57 64 61 57 50 62 83 91 92 78 57 38 32
45 41 35 37 44 51 58 59 78 84 75 59 54 63 51 55 57 58 61 65 69 69 71 73 72 78 74 67 47 46 56 63 70 69 64 67 70 98 94 84 66 49 39 35
36 38 30 35 40 52 58 65 63 78 66 71 55 45 45 53 61 62 66 71 74 82 79 73 77 79 72 55 50 53 61 70 72 78 70 77 89 94 96 89 60 53 45 39
32 41 29 34 39 51 59 58 69 77 91 79 61 56 66 57 64 66 72 72 79 87 81 80 78 79 76 56 59 60 66 78 80 75 76 88 89 95 93 90 74 55 48 44
33 37 34 35 39 52 63 68 70 84 94 91 81 60 58 62 72 73 75 77 84 85 89 81 82 87 84 60 61 62 77 79 77 82 89 93 94 85 86 75 63 53 47 41
35 39 45 34 33 43 49 54 52 78 74 78 85 66 61 65 75 80 86 90 89 92 91 95 94 93 69 56 61 67 84 85 81 88 88 96 97 90 83 72 61 54 48 44
37 42 49 37 37 43 53 58 55 61 63 69 88 65 57 68 71 75 97 97 93 80 78 89 95 87 59 60 72 83 88 84 88 87 99 99 94 89 76 67 61 56 50 48
37 38 40 44 38 45 58 54 49 56 67 63 68 64 63 64 70 85 96 97 91 75 81 87 88 63 67 75 80 82 90 92 88 98 99 97 91 81 74 69 65 58 55 50
42 43 40 40 41 43 54 54 46 53 53 63 57 66 61 68 71 86 98 93 79 75 81 78 79 76 80 84 76 77 97 97 97 98 98 97 93 86 78 73 71 63 57 51
44 50 45 42 38 45 49 45 43 46 44 48 55 55 53 62 67 86 99 89 77 74 71 82 88 87 88 81 79 72 86 96 98 98 98 98 96 92 86 84 79 71 61 52
48 51 50 48 41 45 52 45 38 41 40 42 50 54 50 61 59 82 97 94 87 79 73 74 76 76 76 73 79 74 81 94 96 94 95 98 97 97 92 85 73 62 54 55
45 49 55 54 47 57 40 44 40 38 40 39 45 50 52 59 58 85 98 96 96 90 95 99 93 83 79 86 90 77 81 91 95 91 96 97 96 91 82 72 65 65 66 59
42 47 55 60 54 44 42 40 40 38 39 37 41 48 54 56 57 84 96 99 98 98 98 98 98 99 94 85 77 80 83 89 90 95 97 98 95 84 77 69 63 53 48 48
43 45 53 53 60 58 41 43 45 33 47 40 40 47 56 56 56 78 90 96 98 99 98 98 99 96 97 96 92 92 94 94 97 98 96 95 89 79 67 61 57 55 51 53
54 52 55 59 64 50 46 47 49 38 43 40 41 45 54 55 53 73 90 93 97 96 98 98 98 97 97 98 98 98 98 98 97 98 97 96 87 73 60 56 57 56 51 49
57 56 58 62 64 62 44 47 53 40 42 41 40 42 50 52 56 81 84 96 97 94 95 94 96 98 97 96 95 96 97 98 98 97 94 85 76 66 58 55 57 56 51 45
56 39 44 44 45 43 42 45 49 39 42 47 44 42 48 52 65 85 82 79 93 97 97 96 97 96 96 97 98 98 98 98 98 96 85 75 66 58 54 51 48 42 36 33
52 38 37 40 33 43 42 47 52 47 43 46 46 45 48 53 59 78 86 82 88 96 95 95 97 98 98 97 96 95 94 92 85 75 68 63 54 51 48 44 40 38 36 36
51 38 38 37 35 41 37 43 51 52 48 45 45 48 46 52 53 68 84 84 87 84 87 94 94 92 90 90 91 85 82 73 64 59 56 51 48 46 44 42 40 37 37 37
46 38 39 37 37 36 34 40 48 56 54 48 43 46 47 50 56 56 68 78 82 83 77 78 81 82 79 77 72 69 65 58 53 51 46 44 44 43 40 41 40 38 38 35

GFSCGP_prec_cthk_183.txt.gz
RH
27 30 35 34 31 32 34 39 42 35 32 35 33 35 26 30 27 29 30 29 30 31 32 33 35 36 35 34 34 32 28 25 26 28 28 27 29 37 51 89 89 92 93 77
28 33 29 29 30 33 36 41 41 35 34 40 35 40 30 30 31 32 31 32 34 35 36 38 40 37 38 39 39 37 32 28 27 30 31 31 27 35 44 51 77 81 96 84
31 25 26 28 30 35 38 43 42 45 37 42 41 41 31 30 37 36 34 35 37 38 40 41 41 41 40 42 42 40 37 33 30 32 34 36 39 39 44 53 75 77 91 84
28 26 27 30 34 35 45 34 40 43 53 62 49 63 37 36 34 36 38 40 45 48 48 46 46 44 42 39 41 42 40 40 35 34 39 39 36 42 38 43 82 85 90 82
23 27 29 34 33 33 36 36 44 43 55 63 50 64 42 40 39 41 48 52 52 52 53 53 51 47 46 40 42 39 39 43 40 37 42 47 43 45 48 46 79 78 96 81
30 28 30 31 32 34 35 42 40 47 60 68 53 60 36 39 47 51 53 54 56 56 53 51 49 49 47 50 54 49 43 44 42 39 46 49 45 41 47 48 63 74 94 77
30 29 28 32 35 34 39 48 60 58 65 58 47 54 45 43 49 53 56 58 60 61 58 56 55 61 58 58 58 58 59 51 45 50 47 55 53 48 53 49 66 70 85 80
41 32 31 31 34 38 44 51 68 78 75 57 48 59 48 47 53 58 62 63 63 62 60 60 64 65 63 60 63 69 69 57 52 50 57 59 55 50 53 59 66 86 81 61
35 36 28 31 32 37 44 56 59 75 69 76 57 46 44 46 53 61 70 74 73 76 74 72 66 65 65 69 73 75 67 61 60 59 67 61 56 65 59 67 90 73 76 72
32 40 26 29 29 34 43 49 65 77 84 77 58 50 57 49 54 64 70 73 76 79 80 75 71 69 80 80 71 67 65 63 62 62 67 71 67 64 69 72 90 80 79 65
33 37 33 31 31 36 49 56 66 78 85 82 81 49 49 54 62 70 73 76 88 89 90 89 83 87 88 82 70 65 63 64 65 74 77 80 75 78 82 84 91 79 65 58
36 40 47 34 23 32 40 45 56 77 76 77 76 48 47 54 65 74 76 88 90 88 87 90 88 95 87 83 74 72 71 71 82 90 89 87 87 98 94 93 87 75 62 58
44 48 52 31 28 31 35 41 51 69 73 64 79 49 45 53 63 71 76 92 77 68 77 89 95 98 81 63 64 64 72 87 96 92 99 84 93 98 96 98 89 80 70 60
46 51 46 39 30 34 39 40 50 71 76 62 57 44 43 53 62 66 77 92 74 70 82 95 91 70 59 61 72 83 91 95 96 99 95 97 98 98 98 97 87 77 74 64
53 58 54 45 40 41 38 40 42 58 58 68 43 49 47 53 62 64 86 88 71 69 76 76 68 70 75 83 88 99 99 97 92 98 97 98 98 98 92 87 83 79 66 56
63 65 58 56 42 39 38 32 40 50 49 47 47 45 46 50 59 66 95 85 72 66 74 76 79 85 89 81 91 96 99 98 99 98 98 97 96 91 84 82 78 71 64 55
66 72 69 59 47 42 35 36 42 44 47 41 44 39 43 46 57 68 96 95 86 69 62 70 78 90 82 79 93 92 95 97 98 98 99 98 96 95 88 80 76 70 62 56
64 69 72 67 54 53 25 30 37 42 43 36 42 40 44 49 58 71 94 98 90 84 83 88 91 74 85 96 92 91 98 98 97 97 96 97 96 96 94 88 78 68 62 56
60 66 72 71 65 41 26 33 40 42 45 37 39 41 42 49 58 68 93 99 97 95 98 97 98 97 91 91 86 91 97 98 99 99 99 98 98 96 95 86 75 64 67 71
64 74 73 73 71 56 27 34 44 46 50 35 40 40 42 49 56 72 91 98 98 98 97 99 99 98 91 86 88 93 98 98 98 98 98 98 97 97 88 73 72 72 60 55
69 74 74 72 72 50 33 40 49 48 48 40 44 40 41 49 58 80 91 96 97 98 97 98 96 97 97 97 94 96 98 99 98 97 96 95 93 88 77 66 57 56 57 57
61 80 74 73 75 59 36 47 47 45 48 41 45 45 42 48 67 89 95 95 96 93 94 97 95 96 97 98 97 97 97 96 97 98 97 95 88 78 67 61 60 59 57 54
67 59 72 66 48 37 43 48 46 49 53 44 45 45 45 49 63 85 87 96 96 93 91 90 90 92 94 96 97 97 97 98 98 98 98 90 81 69 62 59 59 58 55 47
58 63 65 67 44 36 39 46 47 48 55 51 46 45 45 50 58 74 88 93 98 96 95 95 92 91 92 94 95 97 98 98 98 97 90 80 70 61 58 56 53 49 41 36
74 74 62 55 46 40 37 41 47 46 55 57 49 46 48 50 58 64 83 86 91 96 98 96 95 97 97 97 98 98 97 93 89 83 72 66 59 55 54 51 46 42 40 41
85 70 67 52 47 42 38 43 44 47 57 60 50 46 48 50 54 60 72 81 91 88 90 93 92 92 89 88 90 92 85 77 68 65 62 56 52 49 46 45 43 41 41 41

GFSCGP_prec_cthk_186.txt.gz
RH
26 27 27 28 27 27 31 34 37 30 28 31 30 31 25 23 25 27 26 25 25 24 26 27 29 30 32 31 31 31 31 31 30 28 27 28 31 26 22 27 46 72 83 94
26 28 24 26 27 30 32 37 38 32 32 34 29 33 26 26 26 27 27 27 26 29 31 32 34 36 37 38 37 36 36 34 34 34 32 31 34 33 28 25 34 38 74 89
27 21 25 26 28 32 32 37 37 37 36 35 36 34 27 25 25 26 29 30 30 33 38 41 42 42 43 42 43 42 39 38 38 39 39 35 37 39 36 31 30 39 51 80
27 24 24 26 31 33 40 31 36 41 46 52 44 55 34 29 28 29 34 37 39 42 45 47 48 48 49 47 45 42 39 35 37 42 41 36 34 36 35 35 36 43 44 55
19 26 29 32 30 31 32 32 39 41 47 53 50 60 39 32 29 32 39 43 48 49 50 50 50 48 46 45 44 44 43 37 35 40 42 39 35 36 37 33 39 44 49 58
30 28 29 29 29 32 32 35 36 45 53 61 50 53 37 35 34 38 44 48 50 52 53 53 52 51 47 47 46 46 47 46 43 40 41 41 39 40 42 43 42 46 52 55
30 29 28 29 32 31 34 42 49 46 54 51 46 54 36 33 37 44 50 51 53 54 55 54 57 60 58 56 55 56 56 56 54 54 46 43 41 42 44 42 42 49 55 66
42 27 30 30 30 33 38 43 55 54 61 49 47 60 39 33 37 44 53 57 60 61 66 68 65 66 61 54 53 57 63 66 61 64 61 54 48 54 50 45 45 51 56 80
37 37 28 31 32 34 41 51 47 59 59 71 56 47 33 32 39 46 51 58 62 66 73 75 77 75 66 60 59 63 68 73 72 72 74 58 57 52 55 54 50 54 54 71
32 41 31 30 32 32 37 41 53 63 72 73 59 54 48 37 39 45 56 62 69 69 71 70 76 86 83 77 75 80 80 80 80 83 77 65 56 58 66 51 57 60 73 79
38 44 39 36 35 35 42 48 54 61 69 76 81 50 44 42 44 50 59 70 72 65 61 66 75 91 92 88 84 84 82 85 85 83 79 70 73 68 61 75 61 64 61 91
42 47 55 47 33 34 38 44 50 65 57 69 75 49 42 46 48 54 63 71 62 69 66 82 91 95 91 88 84 80 77 76 81 74 72 67 74 68 65 81 68 70 76 81
51 55 60 46 34 37 40 38 38 50 60 58 76 52 38 44 47 54 62 66 67 65 68 84 90 96 83 73 69 75 71 71 70 68 70 73 78 74 72 73 72 79 92 92
56 57 55 55 46 43 48 46 40 48 60 56 57 49 39 42 46 54 63 74 71 60 63 71 63 67 67 68 70 71 73 76 80 91 88 87 84 79 90 82 88 88 93 83
56 60 58 56 55 54 52 49 41 45 47 68 46 52 40 44 46 54 63 81 85 60 63 66 73 82 83 83 95 95 98 97 98 97 94 87 86 91 94 98 98 95 84 71
68 71 66 65 60 56 52 46 36 35 43 49 52 49 43 44 46 56 64 87 87 67 63 77 78 85 84 88 93 95 99 99 97 98 98 98 98 98 98 98 95 86 80 73
71 74 73 61 56 57 49 32 31 36 43 45 51 39 41 43 47 53 66 95 90 73 65 68 79 97 87 93 99 97 96 97 99 98 98 99 98 98 98 98 94 91 85 79
56 60 72 69 64 61 35 31 31 33 40 43 46 39 41 43 44 53 78 98 98 90 82 81 86 88 88 87 97 98 96 97 98 98 98 99 98 98 98 97 93 87 75 60
46 54 68 72 68 45 41 36 32 36 38 43 48 42 44 41 49 69 85 98 96 94 94 95 95 95 91 92 96 97 98 98 98 99 98 98 98 97 97 93 89 76 63 58
59 61 67 75 76 69 38 34 32 33 43 42 49 42 47 45 53 78 92 96 96 95 97 98 98 95 95 87 97 98 98 98 98 99 98 97 98 97 93 85 77 66 59 59
51 69 75 77 77 60 39 38 37 51 48 46 49 44 51 49 55 80 91 92 90 97 97 97 98 93 92 92 98 98 98 98 98 97 98 99 98 94 87 80 69 70 77 74
48 56 64 71 76 66 36 47 52 52 51 50 57 47 49 51 57 77 88 90 87 91 95 97 98 97 94 96 97 98 98 98 98 98 98 98 97 94 84 79 79 69 61 59
59 50 54 57 56 46 46 51 54 53 56 54 61 52 54 53 57 75 89 92 88 87 86 89 96 98 97 98 97 96 99 98 98 98 98 98 93 83 75 68 65 65 65 62
56 57 57 60 45 40 45 47 49 56 49 54 60 55 55 53 57 68 89 96 95 91 88 86 88 93 95 97 97 98 98 97 97 97 96 93 86 75 68 66 62 60 59 54
70 71 58 50 47 46 47 50 48 44 48 53 62 57 55 54 58 63 86 92 95 95 91 90 90 89 92 96 96 96 97 98 97 95 91 86 77 67 63 61 59 54 46 42
63 64 72 58 47 48 57 55 49 45 50 52 66 58 55 55 58 64 75 87 93 92 96 94 91 89 93 93 96 97 97 97 94 89 81 73 64 59 57 54 52 48 44 44

GFSCGP_prec_cthk_189.txt.gz
RH
23 23 24 24 24 24 28 31 35 28 26 28 29 29 20 17 19 22 20 19 21 22 24 25 28 29 30 31 31 29 29 30 30 29 28 26 24 22 20 22 19 22 45 85
23 22 22 25 25 28 30 33 34 28 28 31 28 30 21 19 21 21 21 22 25 28 30 31 33 34 36 37 37 36 35 35 34 34 32 30 28 26 25 26 23 24 32 56
25 20 24 26 27 30 31 32 32 32 35 33 35 28 26 20 21 22 26 31 33 33 35 38 40 40 41 41 41 38 38 37 37 37 37 35 33 33 31 33 32 30 31 38
27 25 25 27 30 32 37 30 34 38 45 48 37 45 34 25 26 25 27 35 38 40 41 41 41 41 41 41 39 38 39 38 36 38 37 34 34 33 32 33 37 37 36 42
18 25 28 31 30 31 30 32 37 40 48 51 44 54 37 30 27 25 29 35 38 42 43 44 44 42 43 41 42 42 42 41 40 38 36 34 35 36 35 37 39 39 41 39
30 28 28 28 30 31 32 33 33 43 49 54 41 45 32 31 27 29 31 35 39 41 44 46 47 49 53 53 54 53 50 45 42 42 42 38 36 37 36 39 42 43 41 46
30 29 30 29 31 29 33 37 45 44 47 44 44 46 32 32 32 34 34 34 41 44 50 52 52 59 57 60 60 55 51 53 50 47 46 46 46 39 38 41 44 47 44 48
40 27 30 32 29 30 36 39 51 50 53 47 40 49 31 34 36 36 37 41 45 50 53 57 57 54 55 66 70 65 56 53 56 56 57 58 63 51 44 44 44 50 44 49
43 37 29 31 32 34 41 50 46 57 56 65 48 36 24 33 37 40 41 44 48 60 61 55 52 55 61 72 79 76 66 61 59 60 65 67 72 65 53 48 52 52 50 47
40 43 33 33 35 38 43 47 55 65 70 66 48 44 36 35 37 41 45 47 54 65 55 58 60 72 79 87 94 85 79 75 72 70 69 83 82 75 63 58 56 53 50 65
45 48 44 42 40 40 49 55 57 62 67 74 71 36 28 40 40 41 44 48 60 63 60 56 72 83 89 96 95 90 85 88 88 90 91 91 87 80 72 66 65 61 59 61
48 55 61 49 40 43 44 47 54 64 64 69 69 41 26 40 43 43 45 53 64 63 66 59 69 75 88 81 83 86 89 88 90 93 95 93 90 86 73 71 70 69 66 63
59 58 65 55 45 43 47 51 50 52 62 54 69 38 26 40 44 44 49 54 63 70 74 56 55 56 63 65 67 69 75 79 83 89 95 96 95 82 79 80 66 69 66 71
63 66 64 66 53 45 51 52 51 59 70 54 46 38 34 39 43 46 48 54 67 76 78 63 65 72 76 80 85 85 75 73 75 74 75 85 82 79 76 77 70 78 74 75
78 75 65 56 53 56 61 63 55 58 51 65 35 44 42 43 43 43 44 56 78 82 76 65 71 74 80 88 93 98 98 93 85 78 77 73 76 72 75 80 83 86 84 89
85 76 73 68 62 61 57 53 43 46 47 50 49 46 41 41 41 40 48 77 89 85 78 64 68 80 90 92 95 98 96 99 98 96 97 87 92 83 82 81 74 79 81 91
80 74 73 65 61 58 52 38 39 39 39 41 46 39 43 45 44 43 65 89 97 92 87 74 69 75 83 89 97 95 89 96 97 98 98 97 88 93 87 95 92 94 97 98
60 66 70 63 59 54 36 36 38 39 36 40 35 43 46 47 46 47 84 94 98 95 91 83 73 82 85 91 96 94 92 92 95 98 99 98 98 99 98 98 98 96 94 91
55 59 64 67 63 40 38 31 35 40 33 37 43 44 47 46 46 51 83 97 94 97 97 93 88 89 87 96 98 97 95 96 97 99 98 98 98 98 98 96 97 97 91 85
50 52 56 67 73 66 42 35 36 39 36 42 46 51 53 47 48 52 76 95 93 98 98 98 97 91 91 97 97 98 98 96 97 98 98 98 98 97 97 98 96 93 84 67
50 66 67 67 71 52 41 33 42 53 45 47 46 52 59 51 51 54 81 94 90 90 97 98 98 97 92 94 97 96 98 95 96 97 97 97 97 98 97 95 89 72 65 66
36 46 50 56 63 59 37 40 48 52 49 50 48 54 62 52 54 56 82 95 90 87 91 98 98 95 93 96 97 96 93 95 97 97 98 98 98 96 94 87 76 68 67 71
49 33 34 44 43 35 44 45 52 54 57 50 49 53 60 56 55 59 82 99 94 87 90 96 98 95 94 95 96 98 98 98 98 98 98 98 95 86 78 74 73 78 81 73
62 54 52 52 41 38 35 29 47 52 52 50 48 54 62 56 56 59 79 96 98 93 90 94 98 98 98 98 96 97 97 97 97 97 97 97 94 88 87 87 77 73 70 72
57 69 68 63 48 44 37 34 44 53 49 51 48 55 64 57 57 60 71 91 98 96 92 91 94 97 95 94 95 96 96 96 96 97 97 96 91 78 72 73 74 73 68 61
42 42 59 65 52 51 37 36 45 51 50 54 47 56 65 57 57 61 69 85 98 98 97 92 90 93 94 97 97 98 97 96 96 93 87 84 81 76 75 72 67 59 52 47

GFSCGP_prec_cthk_192.txt.gz
RH
21 19 20 22 23 23 26 30 33 28 25 27 26 26 19 17 18 18 18 17 20 21 23 25 28 29 31 32 33 33 32 30 31 32 31 30 28 27 24 22 20 20 19 25
20 19 20 24 25 27 30 31 31 26 26 30 29 27 19 19 18 18 18 20 25 26 26 30 34 35 35 36 36 37 36 36 33 33 33 33 31 30 29 26 25 26 24 24
21 20 25 26 26 28 30 31 29 32 33 30 34 23 18 18 19 19 20 24 29 29 30 33 35 37 37 38 37 38 39 39 37 36 35 33 34 33 31 31 28 29 29 30
24 24 26 27 28 30 34 29 32 36 39 44 35 40 24 21 21 21 22 28 31 32 32 33 34 34 36 38 38 40 41 39 39 39 37 34 33 33 33 32 34 37 33 37
18 27 28 29 27 31 29 33 35 37 44 49 41 51 28 23 21 21 25 28 32 33 34 34 34 37 39 42 46 45 47 47 44 42 42 38 35 35 36 35 36 40 39 41
29 29 28 28 31 32 32 31 31 39 47 50 39 45 29 24 21 23 27 29 34 34 36 36 39 45 49 49 42 40 45 51 51 51 48 45 40 38 36 36 39 41 43 40
28 29 33 33 35 33 32 33 40 41 45 43 44 48 28 21 24 28 29 32 35 38 39 38 49 55 45 43 44 46 48 48 57 56 57 53 49 48 43 38 40 41 46 45
36 28 35 38 35 32 38 35 45 50 54 48 44 48 28 21 25 31 31 38 39 38 41 50 63 57 45 51 57 60 65 62 59 63 62 58 54 58 50 49 45 42 44 47
41 35 36 42 40 38 43 46 43 53 54 67 49 34 23 20 24 31 33 41 40 42 45 61 62 54 53 70 74 73 78 85 79 76 74 64 61 64 56 59 56 48 49 52
37 39 37 41 47 46 43 46 55 64 70 70 49 41 33 23 24 31 37 42 42 47 51 65 71 57 56 65 72 85 90 95 92 85 75 69 65 70 70 69 65 58 56 60
42 43 43 46 48 47 53 59 62 64 65 73 67 41 27 24 26 32 38 42 45 50 60 68 78 62 55 61 65 68 87 90 91 88 84 75 74 75 91 75 73 69 58 62
45 53 58 52 55 54 53 59 64 66 65 73 72 41 24 25 31 35 39 40 45 59 71 70 74 65 65 71 71 73 68 83 88 89 88 96 84 87 93 83 79 76 73 62
53 59 68 61 59 58 61 64 60 57 63 65 71 40 26 27 36 38 41 43 48 74 68 72 71 66 71 78 82 86 78 67 75 85 93 97 99 98 96 93 93 78 71 67
69 72 70 72 64 66 67 60 51 50 62 53 57 43 33 36 39 42 43 44 62 92 80 74 68 71 77 86 88 93 97 90 72 75 88 96 98 99 97 91 95 84 72 67
76 81 76 75 81 81 68 59 52 58 52 64 37 52 41 41 42 44 45 45 81 96 94 79 71 72 79 91 96 98 96 97 91 71 73 90 96 95 93 94 91 80 77 83
88 91 91 88 83 76 70 62 50 50 49 49 50 48 47 40 42 44 46 55 87 95 95 85 77 76 81 93 94 94 90 94 96 94 78 73 84 89 88 82 87 82 79 72
90 92 94 88 80 73 62 39 36 42 46 50 50 39 37 42 44 44 46 65 89 95 97 94 88 75 88 93 95 93 88 94 97 94 98 85 81 88 85 85 85 80 88 90
81 85 86 83 71 73 38 36 36 41 37 42 46 44 43 46 46 44 51 66 94 93 98 97 95 92 93 96 95 92 87 87 92 97 98 94 91 88 85 89 87 77 93 90
64 66 73 71 70 49 40 31 34 43 46 39 44 44 47 51 49 48 48 68 94 92 94 98 98 98 96 97 96 94 91 90 91 97 98 98 98 95 86 94 97 91 86 91
58 57 59 65 71 61 41 39 35 39 35 35 45 46 47 52 48 51 49 67 94 93 90 97 98 98 96 96 97 96 95 92 89 88 92 94 98 98 97 97 98 98 98 92
58 62 65 64 65 51 37 28 34 45 41 41 46 47 47 53 53 52 52 69 95 93 90 96 98 98 98 96 96 96 93 93 93 92 95 96 95 96 97 97 98 97 91 77
36 47 52 52 58 54 31 33 39 37 38 42 45 46 44 49 53 54 54 74 97 91 90 96 98 97 96 98 95 91 95 96 96 93 94 95 98 98 97 96 93 89 79 76
46 36 41 49 43 28 32 38 33 42 41 44 45 50 44 50 57 55 56 72 96 95 91 95 98 96 96 98 97 94 96 95 96 96 95 93 94 96 95 88 77 72 72 70
58 48 53 52 38 34 27 23 28 33 40 45 47 51 48 49 61 56 56 72 93 97 90 94 96 98 98 98 98 97 97 97 97 98 98 98 98 94 87 78 76 79 86 88
33 38 45 43 44 47 41 39 39 39 31 35 47 54 50 53 65 57 58 74 94 98 91 90 95 96 97 97 97 98 97 97 97 98 98 97 90 84 81 85 91 89 83 77
38 38 41 34 25 40 30 36 47 42 30 32 51 52 53 54 66 59 61 74 94 98 96 90 92 95 96 96 97 98 98 98 97 97 97 92 89 90 89 83 80 74 73 70

GFSCGP_prec_cthk_195.txt.gz
RH
23 19 20 19 19 18 22 25 28 25 24 25 25 23 16 15 15 15 16 16 18 20 22 24 25 27 28 29 30 31 31 31 32 31 29 28 27 26 26 26 26 24 22 22
24 21 21 24 23 24 26 28 29 25 26 29 28 23 16 16 16 16 17 17 20 23 25 26 28 29 29 29 30 31 32 33 33 32 34 33 30 28 28 28 28 28 27 26
22 23 26 25 25 26 27 27 27 29 31 29 30 20 17 16 16 18 18 19 21 24 26 27 29 31 30 29 28 30 32 34 35 35 35 35 34 31 29 28 29 30 31 34
24 25 25 26 27 27 29 28 31 36 37 35 32 28 22 20 18 19 18 21 24 26 27 29 32 32 31 29 30 37 39 39 41 42 43 40 38 36 34 34 32 32 34 37
17 28 30 30 27 28 27 33 37 39 43 46 38 45 23 21 18 17 21 23 24 26 28 31 32 32 31 36 43 46 38 33 34 37 42 48 42 42 42 39 36 34 36 37
25 30 30 27 30 32 34 35 34 39 45 44 36 38 25 20 19 19 23 26 27 29 31 35 35 35 36 48 54 44 42 45 45 43 43 47 53 47 49 45 40 39 39 39
29 32 34 32 33 34 34 32 38 39 44 36 44 44 25 19 19 22 25 27 28 31 34 37 38 39 45 54 60 47 50 54 54 53 50 49 50 58 54 51 48 43 43 41
30 27 34 36 35 35 42 36 46 41 50 45 48 48 27 20 19 22 24 27 30 32 38 40 41 49 57 64 60 49 51 56 60 63 64 60 57 61 65 56 56 54 47 43
32 29 34 41 40 39 46 48 45 56 58 66 52 41 26 20 21 22 26 29 32 34 37 39 56 65 58 65 52 48 51 58 68 74 79 79 72 70 72 67 62 62 55 49
31 33 36 40 41 41 40 44 55 64 66 72 56 49 32 23 24 26 29 33 34 37 40 65 67 59 60 58 51 56 63 63 70 82 90 91 86 85 79 72 70 67 63 59
38 37 39 38 40 42 50 56 63 67 70 77 72 47 29 26 26 30 33 35 39 41 46 80 64 62 61 58 63 67 68 66 62 78 86 98 93 88 84 77 75 72 71 66
46 50 51 44 41 44 48 55 63 74 73 75 72 48 27 26 29 33 33 36 40 41 61 87 76 67 59 63 74 78 84 83 69 71 85 91 92 86 85 81 77 80 76 71
53 61 64 55 56 57 60 62 64 74 77 73 73 41 27 28 34 34 34 38 39 46 69 90 86 74 60 66 78 86 88 88 89 70 83 92 98 96 89 88 91 89 84 76
62 68 65 67 65 64 67 66 72 77 83 56 53 37 36 36 37 35 35 39 40 58 80 89 91 83 71 70 77 84 86 87 94 80 77 92 96 96 99 97 93 91 90 83
78 83 83 77 73 73 72 74 74 75 55 61 47 51 42 42 40 39 39 41 46 66 87 91 94 91 79 72 85 86 84 86 94 87 74 83 94 97 96 97 98 98 88 86
87 86 80 81 80 83 81 78 71 67 56 55 55 51 44 42 40 42 42 45 50 74 89 90 96 98 89 82 88 93 82 91 93 97 78 74 91 93 97 97 99 98 98 87
85 92 94 91 83 81 78 65 58 54 46 49 56 47 42 39 42 44 44 47 54 78 93 88 97 98 98 97 94 94 87 90 94 96 82 73 86 87 92 91 93 96 88 84
86 92 92 91 85 86 51 45 47 42 42 43 42 46 45 44 43 46 48 49 57 85 91 88 97 98 97 98 98 97 92 92 98 98 95 91 81 88 91 82 82 84 86 81
73 81 87 86 84 64 47 32 37 38 38 40 46 46 41 42 43 45 50 49 61 91 91 89 96 98 98 98 95 95 93 94 98 98 98 97 90 83 90 92 90 84 85 89
64 62 64 76 81 71 41 40 40 40 36 36 42 42 41 44 44 45 48 49 63 95 93 90 96 98 98 97 94 91 91 94 96 97 94 98 95 91 89 95 94 84 86 92
67 72 68 66 65 58 35 33 37 46 37 41 47 48 47 49 48 45 49 51 65 92 92 93 97 98 97 97 93 93 92 91 91 92 92 93 91 91 92 93 94 95 92 88
54 63 65 67 69 64 34 38 42 40 43 38 36 42 44 44 49 47 51 53 67 92 93 93 98 98 96 96 96 96 95 93 93 94 94 93 95 96 98 96 97 92 88 84
48 39 44 47 42 31 36 37 41 39 37 26 34 38 38 43 49 49 53 56 70 92 94 92 97 98 98 98 97 97 93 92 92 91 92 94 95 98 98 98 95 90 79 77
54 49 49 42 34 33 31 28 29 31 31 28 35 36 42 43 52 51 55 58 72 93 94 91 96 98 98 98 98 97 93 92 92 94 96 94 95 96 96 92 84 83 80 75
29 33 43 40 40 35 28 25 29 31 35 33 35 35 39 44 55 52 56 60 73 95 95 90 96 97 97 96 98 97 97 94 92 92 95 96 94 89 81 77 80 85 88 92
34 29 30 24 19 21 19 18 22 27 27 30 31 29 29 47 57 52 57 62 74 97 96 93 93 97 98 98 98 98 98 98 97 96 95 91 87 83 82 87 92 95 92 90

GFSCGP_prec_cthk_201.txt.gz
RH
24 24 28 20 17 15 13 13 13 14 16 16 15 15 14 14 15 15 15 16 16 18 19 20 21 20 19 20 20 20 19 19 20 20 20 20 23 25 25 23 26 26 23 22
24 24 23 24 22 20 18 17 18 17 17 18 16 14 16 16 17 16 16 17 18 20 21 22 23 20 20 21 21 19 20 20 20 20 22 24 26 29 28 31 27 28 30 26
23 28 27 24 24 24 22 20 19 19 20 20 22 16 18 18 18 18 18 19 19 20 23 25 24 23 22 22 21 22 22 23 24 25 27 31 31 32 33 33 34 29 31 32
23 27 27 29 28 25 27 23 22 23 23 28 23 21 18 21 19 19 20 22 23 23 23 22 21 20 22 23 22 22 23 28 33 37 39 44 48 43 39 41 40 40 36 36
34 33 34 32 28 26 27 23 26 26 31 33 29 35 21 22 24 26 26 27 26 26 25 22 19 20 22 24 24 29 45 47 38 36 37 40 41 44 46 44 45 44 42 43
36 34 31 30 26 27 28 25 25 32 37 47 28 29 22 24 23 28 29 30 29 28 26 23 21 22 24 25 30 44 55 41 40 41 42 38 37 39 41 44 48 51 49 45
35 34 33 30 30 29 30 26 42 51 52 36 33 30 19 23 25 28 29 30 31 30 28 24 23 24 26 32 38 54 59 44 43 45 43 44 46 49 51 51 51 50 55 51
45 41 35 30 31 27 28 27 41 37 36 32 34 30 28 28 28 30 33 36 34 31 27 24 25 27 30 39 48 61 66 53 48 46 46 46 50 54 56 58 56 60 58 56
41 36 40 36 34 31 33 30 32 38 33 38 28 29 27 29 31 35 36 36 34 31 26 24 27 33 37 47 55 64 69 69 56 55 59 61 63 60 62 61 64 70 70 66
42 37 39 41 38 35 34 34 40 41 51 43 29 33 39 36 35 37 38 39 33 27 25 26 33 38 45 53 63 71 76 77 70 67 67 74 78 72 75 63 71 76 81 75
50 37 42 42 39 36 39 38 36 39 42 54 41 35 42 38 40 42 44 40 35 29 28 31 38 43 49 58 68 75 82 82 73 72 73 80 85 80 75 67 79 83 90 86
49 50 47 42 40 38 38 34 34 44 53 54 61 47 40 41 44 48 50 35 30 30 32 35 46 53 56 65 74 80 84 80 75 82 85 93 90 78 66 74 86 96 94 92
55 52 54 48 43 44 44 43 44 44 52 59 63 48 47 46 52 52 46 33 31 31 34 38 53 57 64 71 77 83 91 84 81 89 91 93 93 75 71 87 93 95 94 98
67 66 56 55 60 57 55 54 56 58 63 52 54 51 50 53 57 53 39 31 32 32 36 41 54 61 69 75 80 89 91 88 88 93 90 96 85 74 87 96 96 98 96 98
74 71 66 63 63 62 62 62 62 60 60 63 54 51 52 60 58 50 35 32 32 35 37 44 57 65 73 81 85 92 91 90 95 93 95 95 78 84 94 96 97 95 97 98
91 87 83 84 72 73 70 66 63 60 58 56 55 54 61 60 55 42 37 35 36 37 40 48 62 70 79 84 88 91 89 94 97 98 97 92 80 92 96 96 96 99 97 96
90 91 92 84 75 76 71 60 54 58 56 57 62 59 59 60 49 40 38 40 37 38 43 54 66 76 84 89 91 89 88 95 98 98 97 90 76 88 96 95 97 98 97 98
95 90 94 88 83 81 59 54 57 57 55 53 50 55 62 56 40 39 43 40 36 39 44 57 70 81 88 92 93 89 89 96 98 98 96 91 85 83 90 92 96 98 98 99
87 92 96 93 83 66 61 57 57 54 53 54 50 57 49 43 40 45 39 38 40 41 50 61 76 85 91 95 94 89 89 96 98 98 98 92 79 81 89 95 98 96 97 95
68 74 86 87 87 74 62 58 50 50 52 51 48 50 49 42 41 34 37 39 42 45 52 65 80 88 91 96 96 90 88 91 96 98 98 96 88 83 92 86 89 96 95 96
65 69 74 77 76 62 51 47 46 50 62 57 52 48 44 43 37 35 37 37 38 44 52 69 83 91 92 96 95 91 87 89 93 97 98 95 88 83 92 90 89 90 92 90
55 61 65 68 72 79 58 54 47 48 50 50 48 42 40 39 38 34 26 25 36 44 52 71 87 91 93 96 95 91 88 88 95 97 97 94 91 89 92 96 92 87 90 92
47 44 48 53 56 64 65 55 53 48 45 47 44 40 42 39 32 28 23 21 36 46 53 74 91 94 94 96 94 93 91 86 94 96 97 95 96 92 92 95 95 89 91 92
44 46 46 39 41 45 50 48 40 41 42 43 40 34 33 29 23 20 21 26 41 46 54 77 93 95 94 96 96 94 94 92 91 95 97 96 96 95 94 96 97 97 94 90
45 39 43 43 42 39 38 32 33 35 40 34 30 29 27 24 22 24 24 31 44 47 54 81 94 96 95 96 97 96 96 95 94 95 94 94 95 96 95 94 91 87 81 80
38 35 37 30 25 22 18 17 18 19 21 22 22 21 20 23 21 24 28 33 46 48 54 82 94 97 96 97 98 97 96 96 95 95 96 96 96 94 90 83 83 84 87 85

GFSCGP_prec_cthk_204.txt.gz
RH
26 27 31 26 21 19 20 16 14 17 18 16 15 15 14 13 14 16 17 18 18 19 19 19 19 19 19 19 19 18 16 16 16 15 16 16 16 17 19 21 22 22 24 27
28 28 22 25 25 28 26 21 19 19 18 18 16 15 13 15 17 18 19 21 21 23 22 22 22 22 22 21 20 17 17 16 15 16 19 20 21 21 22 24 26 29 30 32
30 29 26 25 26 29 25 24 24 25 24 21 22 18 16 17 18 19 20 22 22 22 25 27 27 26 24 21 19 18 17 17 18 25 30 33 33 31 31 30 31 36 37 34
24 26 27 26 27 26 32 27 26 27 29 41 22 31 18 19 20 20 21 23 26 27 27 26 25 24 22 20 19 19 19 20 24 35 36 37 32 32 30 33 36 40 40 40
35 31 29 30 28 27 35 32 34 32 35 30 24 36 20 20 23 23 24 24 25 26 26 26 26 25 23 21 20 22 25 28 32 39 44 40 34 35 36 32 31 34 36 41
34 35 36 38 34 32 33 30 31 37 42 46 27 32 30 25 23 25 25 28 29 28 28 28 29 27 24 21 23 27 31 34 40 45 54 48 41 39 36 35 37 39 40 41
36 37 35 36 40 37 33 33 52 57 54 53 29 34 28 25 25 26 28 30 32 31 31 31 29 28 24 25 28 32 39 41 47 51 56 56 47 41 41 42 43 45 47 46
53 50 39 35 37 37 35 33 50 52 58 55 35 41 27 25 25 27 30 33 34 33 32 33 31 28 29 32 33 38 42 49 54 61 65 65 62 56 52 51 50 52 52 54
54 53 47 43 41 40 39 39 31 38 29 48 36 30 32 30 30 30 34 35 35 35 37 37 32 30 34 37 39 42 48 53 62 71 75 74 71 69 70 66 63 63 65 63
51 51 51 52 48 43 42 34 41 41 54 53 42 35 45 36 34 36 38 38 38 39 42 40 33 36 39 41 44 49 54 60 68 73 76 74 72 70 75 79 79 79 68 66
54 51 59 54 50 42 41 41 38 47 55 62 56 38 31 36 40 44 44 42 43 44 42 32 31 36 41 43 47 55 60 66 73 77 72 68 74 82 86 87 83 75 66 70
56 55 60 58 46 42 45 39 39 56 54 56 59 54 35 41 45 50 49 45 47 44 37 32 32 38 44 47 55 61 66 72 75 80 77 76 81 88 85 84 74 64 70 80
62 59 63 58 54 44 44 42 42 42 44 53 65 52 45 50 51 55 50 47 46 44 34 31 34 41 49 54 61 66 73 76 78 82 83 85 87 91 88 73 70 79 85 88
74 67 64 68 61 58 56 49 46 50 67 57 55 51 52 54 59 58 47 47 47 39 31 34 36 46 52 59 65 70 76 77 79 86 91 92 95 90 73 76 81 88 90 86
82 85 74 67 65 67 62 60 58 59 56 63 54 58 57 54 57 48 50 51 48 34 32 35 36 51 56 63 69 77 79 80 82 90 95 96 89 84 82 85 88 94 92 93
93 98 89 87 75 71 75 68 65 62 56 58 62 62 52 57 54 52 54 52 42 33 33 34 42 55 60 69 74 81 81 82 86 94 97 94 84 81 92 90 89 90 94 98
91 95 97 93 80 80 83 70 67 66 63 63 67 59 63 63 55 56 56 49 36 33 35 38 49 58 68 74 79 83 84 84 93 95 94 90 81 77 89 90 93 96 95 97
84 89 97 96 87 92 67 64 61 61 60 61 62 61 61 59 57 58 53 38 35 36 35 43 53 63 74 78 83 85 85 86 96 97 94 90 84 76 83 88 94 94 96 97
72 84 96 95 94 75 66 67 66 64 63 63 62 64 59 55 54 54 44 39 33 32 37 44 56 67 79 81 85 86 84 84 94 97 95 91 81 77 86 91 92 94 95 96
59 69 78 90 96 80 70 66 66 66 69 62 56 60 59 55 53 52 41 34 32 32 35 43 56 73 83 86 89 86 84 83 89 96 94 94 85 81 91 85 93 95 96 97
66 67 70 71 80 75 64 63 57 66 71 62 57 58 55 54 52 44 33 30 25 25 35 44 56 77 88 88 90 88 85 84 91 94 93 94 86 83 90 87 89 92 94 97
58 72 70 68 74 77 60 56 60 66 70 64 59 57 54 54 46 35 30 26 24 24 31 45 57 81 91 91 92 90 85 84 91 95 92 91 85 85 90 91 89 87 89 92
54 53 58 60 65 63 61 64 62 63 65 66 62 57 52 46 40 32 29 23 18 24 32 46 60 85 92 93 94 92 88 85 90 93 91 90 90 87 88 91 92 85 86 89
42 41 45 48 44 50 54 56 55 52 52 58 57 50 41 37 35 31 28 21 22 25 37 47 62 87 94 95 96 93 92 88 88 92 95 94 93 91 92 92 94 94 92 95
40 42 44 44 39 34 35 44 46 44 46 44 46 46 40 33 32 29 25 20 23 26 41 49 62 89 95 96 98 97 96 93 90 89 90 92 92 90 91 92 94 93 94 91
33 32 33 29 24 27 26 22 25 27 27 36 38 36 35 31 25 22 19 19 22 27 43 51 60 90 95 97 98 98 98 95 95 94 91 90 91 92 89 83 82 81 82 85

GFSCGP_prec_cthk_207.txt.gz
RH
24 29 32 26 24 23 19 21 17 21 19 16 15 15 12 12 13 14 16 17 19 19 20 21 21 21 20 20 19 19 18 17 17 16 15 13 14 16 17 18 20 20 22 24
27 28 24 25 25 25 22 21 22 26 23 16 17 17 14 13 13 14 17 20 21 23 23 25 26 26 24 23 23 21 20 20 19 18 16 17 20 24 24 24 24 24 26 30
30 26 27 27 26 27 27 26 28 29 29 25 24 18 17 17 17 17 20 23 25 25 27 28 28 26 25 24 23 22 21 21 20 20 21 22 25 29 27 28 25 25 24 26
28 24 26 29 29 29 29 26 30 33 33 34 27 25 21 20 19 21 23 24 25 24 24 24 25 25 24 24 24 23 23 22 22 23 25 28 29 33 35 34 27 26 29 30
36 34 30 29 28 27 32 31 35 37 42 32 27 34 19 20 20 22 24 23 23 24 25 26 27 26 25 26 26 25 26 24 24 27 29 32 35 38 43 45 39 30 28 30
38 35 36 36 34 31 32 33 37 42 44 41 23 27 27 22 22 25 25 25 24 25 26 27 28 27 28 28 29 30 29 27 27 30 33 38 41 43 44 45 43 36 32 33
42 42 35 36 40 39 40 41 56 57 52 36 30 34 27 25 25 26 27 25 26 27 29 30 29 29 31 34 33 33 31 29 30 36 40 44 47 52 54 52 50 47 44 38
56 48 45 37 39 39 42 43 52 40 62 52 33 35 25 26 27 28 27 27 28 30 33 33 32 32 36 40 38 33 31 33 37 41 45 50 55 59 64 63 61 58 57 55
58 55 52 47 44 42 46 46 37 44 42 49 44 36 31 30 31 30 30 30 31 35 37 36 34 37 42 41 37 32 35 38 42 45 51 54 61 65 68 66 69 67 69 68
55 53 54 54 51 48 49 41 44 50 54 60 48 36 42 35 35 34 35 33 36 38 39 38 38 40 39 34 33 34 37 43 48 53 56 63 65 63 64 65 68 74 74 75
57 56 60 64 58 52 54 52 48 50 57 61 57 43 36 38 39 37 37 39 39 41 43 40 40 40 35 35 35 39 44 51 54 56 61 64 68 70 68 72 79 79 79 76
66 65 68 61 58 56 52 49 48 57 54 64 61 46 34 35 39 41 44 44 44 47 44 43 41 40 35 36 38 41 50 57 58 60 64 70 76 78 80 82 83 82 77 74
75 76 76 65 58 59 60 56 50 49 52 58 66 52 36 42 45 47 52 49 49 48 46 44 44 39 37 39 44 49 57 58 60 66 72 77 81 88 90 86 81 73 72 74
75 78 79 79 66 62 64 62 54 54 65 55 54 45 44 49 53 55 56 55 52 49 46 47 43 34 40 45 50 55 59 60 66 75 80 84 90 91 87 82 76 74 78 82
81 83 80 80 78 75 67 67 68 66 61 66 50 47 48 52 56 61 61 56 51 50 48 46 38 35 43 51 55 58 63 66 75 81 86 92 91 83 81 84 84 81 85 88
81 84 87 85 81 81 82 74 71 72 69 66 63 59 55 60 62 63 58 56 56 50 47 42 36 42 50 55 59 63 67 72 79 84 91 92 87 76 72 83 85 87 87 89
75 76 83 82 80 80 85 76 71 69 67 64 66 61 65 66 65 61 62 62 57 51 45 36 35 42 52 59 64 67 71 77 79 88 92 92 84 74 76 81 88 90 89 90
70 75 81 83 83 88 65 65 63 65 64 69 71 66 65 67 65 63 65 59 55 49 37 31 36 43 57 64 68 71 74 79 80 88 92 89 84 73 76 84 86 88 91 89
61 70 79 82 84 69 64 66 66 67 68 69 69 70 70 68 67 68 62 54 49 38 29 30 35 44 58 69 72 76 78 77 79 88 91 87 79 76 83 84 88 87 90 93
56 66 77 81 82 79 59 55 62 67 74 70 69 68 68 65 72 72 63 51 45 33 30 27 34 47 63 74 76 80 80 76 82 90 88 87 82 79 82 81 88 86 90 93
63 68 69 75 78 68 55 54 52 62 69 67 64 66 64 66 68 63 52 51 42 32 29 26 35 49 68 78 80 85 83 79 86 90 88 88 83 81 85 84 81 85 88 90
61 67 71 72 74 73 52 51 54 57 60 65 69 70 69 62 60 60 54 46 38 28 23 27 36 51 73 81 83 88 86 82 86 90 90 90 84 85 87 88 84 85 87 90
58 55 57 64 69 56 56 57 55 56 57 59 65 70 71 65 56 58 54 47 36 28 22 30 39 51 78 84 88 90 89 85 86 92 91 89 89 86 85 86 87 81 82 83
46 50 52 51 46 48 56 58 57 56 54 53 55 59 61 61 50 44 45 40 33 26 22 29 42 54 81 87 90 92 93 88 87 89 94 94 92 87 87 88 88 85 81 84
35 34 32 34 33 34 34 45 51 55 51 49 49 50 50 50 48 37 34 32 28 24 22 28 43 56 81 90 92 94 95 92 88 89 90 91 93 91 90 90 91 91 90 85
28 25 31 29 22 24 24 22 30 38 42 44 46 48 41 44 46 42 31 28 24 24 21 27 45 58 80 91 94 95 96 95 92 90 90 92 91 91 90 88 88 86 83 77

GFSCGP_prec_cthk_210.txt.gz
RH
26 27 28 24 27 25 26 25 18 25 21 19 19 16 12 12 13 14 15 16 18 19 20 22 22 23 23 23 23 22 21 19 18 18 17 16 16 15 16 17 19 18 18 19
31 30 22 22 27 28 26 24 22 24 24 19 19 17 14 13 12 12 13 16 19 22 23 24 25 26 27 27 26 24 22 20 19 18 18 20 20 19 19 19 22 21 20 21
32 28 26 24 24 28 28 28 26 24 28 27 27 21 17 16 15 15 16 18 21 25 26 28 27 26 24 25 24 23 22 22 22 22 22 22 24 23 22 22 23 24 24 24
30 33 28 27 27 30 30 31 30 31 32 36 32 32 23 23 23 22 22 21 23 25 26 25 24 24 24 25 25 24 25 25 26 26 26 27 27 26 26 27 28 28 29 28
31 38 37 31 26 28 32 33 36 37 40 36 34 38 21 25 25 25 23 22 24 26 26 24 22 24 25 26 25 29 30 30 29 29 30 30 30 30 31 33 35 37 35 35
33 36 40 39 36 30 32 33 38 42 41 40 27 30 22 27 25 26 24 24 26 27 26 25 25 26 27 29 31 32 32 31 30 31 33 32 30 33 34 35 38 41 40 40
35 36 39 39 40 39 36 36 47 44 49 38 34 35 22 22 21 23 26 27 28 27 27 27 27 29 31 33 33 33 34 32 34 34 33 32 35 37 39 43 45 47 49 53
49 41 43 42 44 42 44 40 46 34 53 49 39 42 28 25 24 26 28 30 29 28 29 28 30 32 34 35 33 34 33 31 35 36 33 35 38 40 44 49 53 57 58 59
52 46 48 49 50 48 47 51 43 48 46 53 50 41 36 32 30 30 30 31 31 31 30 31 33 34 36 35 35 35 33 34 33 33 35 38 40 43 48 53 56 58 61 64
47 52 48 53 53 54 54 50 53 54 55 59 51 44 45 36 35 36 35 33 33 33 32 34 36 38 39 38 38 37 35 35 36 38 40 42 44 46 51 56 59 59 63 69
49 51 49 54 57 57 58 58 56 57 57 60 59 44 36 36 39 39 38 38 37 35 36 37 41 43 41 38 40 39 38 35 38 41 43 46 48 53 59 64 69 72 73 76
56 61 64 58 55 56 57 60 59 71 60 67 64 46 43 42 46 43 42 38 38 39 39 44 45 43 41 42 41 41 36 38 41 45 49 52 57 64 70 76 78 81 82 82
62 68 74 64 61 62 59 61 61 60 64 68 68 50 42 42 44 43 42 41 42 41 45 49 47 43 43 42 41 38 41 44 45 49 58 63 69 76 80 81 81 80 79 77
64 68 70 76 72 74 72 65 64 73 80 66 62 50 47 47 47 45 48 48 46 45 49 51 47 44 44 44 41 42 47 49 51 58 63 71 79 82 77 76 75 75 75 75
66 71 71 72 74 79 81 79 74 75 73 78 64 60 54 55 54 54 55 54 51 53 53 52 50 46 46 45 43 49 52 55 58 63 70 78 83 81 72 66 72 78 80 80
70 76 74 76 71 72 74 74 76 77 74 74 74 70 61 60 59 60 60 59 61 59 57 55 51 48 45 41 47 53 57 60 62 67 76 83 83 76 68 66 73 80 84 83
69 69 73 71 63 68 68 62 68 69 73 76 80 71 71 72 72 71 69 65 62 63 60 55 47 46 41 45 52 57 62 64 66 73 78 85 85 73 65 73 80 78 84 87
69 70 70 73 66 74 46 51 57 65 70 70 69 72 75 74 75 72 69 67 61 58 56 49 44 38 39 50 60 65 65 67 68 74 79 89 81 71 69 75 78 79 85 85
60 67 71 75 74 57 48 48 53 55 59 65 68 70 73 74 76 75 72 67 62 55 51 46 41 31 39 57 66 69 70 70 71 76 85 86 80 76 73 78 84 84 87 86
54 62 71 75 75 70 52 51 49 49 59 55 67 72 73 73 78 79 72 68 62 60 53 43 33 29 43 62 71 74 75 76 75 83 86 82 78 74 74 78 82 84 85 85
65 70 69 74 78 66 52 48 52 56 54 51 54 62 70 73 76 73 67 67 67 61 50 35 27 30 46 66 76 78 79 81 79 85 85 83 76 76 80 82 79 83 85 86
65 71 70 71 76 70 49 48 53 53 52 53 52 57 66 74 72 68 67 71 69 59 46 36 26 30 49 69 78 82 84 85 82 85 88 84 80 79 83 84 82 82 85 86
52 51 57 67 63 53 53 53 55 54 53 53 53 55 57 66 72 75 66 68 68 57 45 32 28 30 50 71 81 84 88 89 85 85 91 89 86 82 83 86 86 81 81 83
48 47 50 50 51 50 54 56 55 56 55 55 54 51 50 50 58 68 66 60 60 54 40 30 26 28 49 68 82 86 91 92 86 87 88 93 90 86 85 87 88 87 83 82
34 34 33 35 35 35 38 45 48 48 49 50 50 47 47 45 44 54 61 53 48 42 36 31 25 25 48 66 83 89 93 94 90 87 88 88 90 90 89 90 89 90 89 81
26 26 33 31 25 26 27 25 29 36 41 46 47 48 45 44 41 39 50 54 44 37 31 27 25 24 48 68 84 91 94 95 94 90 89 89 89 89 89 86 88 85 79 73

GFSCGP_prec_cthk_213.txt.gz
RH
21 24 26 21 24 23 25 25 25 23 20 19 19 17 13 14 15 16 16 16 17 18 18 20 22 23 23 22 23 23 23 21 19 18 17 15 15 15 16 17 17 17 16 17
26 27 23 23 22 24 27 29 29 28 30 22 21 21 17 14 13 13 13 15 17 19 21 23 24 24 25 27 26 23 22 21 21 20 20 19 19 18 18 18 19 19 19 20
26 23 28 28 26 26 27 30 27 26 30 27 26 21 18 18 16 13 13 14 17 21 23 25 26 26 26 23 22 21 21 21 22 23 24 24 23 24 24 23 23 23 23 23
25 27 29 29 30 29 27 30 30 33 34 38 29 31 19 23 23 22 19 17 21 24 26 27 26 25 22 22 22 22 22 24 26 26 28 29 28 28 28 29 29 28 28 28
26 30 32 33 32 32 33 33 35 37 40 37 34 38 22 28 30 30 28 25 25 25 27 26 25 24 23 23 23 24 25 28 29 29 31 31 31 30 31 32 32 31 32 34
30 29 32 35 38 38 35 33 37 41 39 43 31 32 23 31 31 32 30 28 26 25 26 25 25 24 24 25 26 27 28 30 32 32 32 31 32 34 35 35 34 32 35 37
34 33 32 34 37 41 42 40 47 41 47 42 32 32 22 22 26 29 27 25 26 27 28 27 26 26 27 27 27 28 32 33 33 34 33 33 34 37 38 36 36 37 40 42
45 35 38 38 38 42 46 44 52 39 50 44 39 40 28 25 25 28 30 29 28 27 29 29 29 28 29 29 29 33 35 36 36 36 36 36 37 35 34 36 38 40 42 47
47 41 42 43 43 44 47 54 48 53 50 56 46 36 29 28 30 32 34 34 32 32 31 31 31 31 31 31 32 36 38 39 38 36 38 36 34 35 36 37 39 40 44 48
41 45 41 44 46 49 50 52 61 62 55 61 48 44 43 35 35 36 38 36 35 34 34 35 33 34 34 35 37 39 42 41 38 39 39 37 38 40 41 43 45 49 54 57
45 47 44 47 48 49 57 59 60 63 65 66 62 43 37 37 39 39 39 39 40 40 39 36 36 36 38 39 41 43 44 40 40 40 39 41 43 47 49 52 55 60 66 70
51 56 57 48 48 50 53 57 61 74 67 74 70 57 42 42 42 44 44 45 46 49 44 39 37 38 40 42 44 45 43 40 43 42 42 45 49 52 53 56 65 70 72 74
56 62 68 56 54 53 55 58 57 64 71 78 82 59 50 49 53 53 54 54 51 47 44 41 39 40 44 45 47 48 43 43 45 43 46 49 54 57 60 67 67 63 65 65
60 62 61 62 56 60 63 64 65 68 79 69 68 62 58 58 58 58 56 54 53 49 46 45 44 46 49 50 52 50 46 45 44 47 50 55 58 62 68 66 58 57 61 70
66 67 64 62 62 66 65 65 71 75 74 76 63 69 66 65 64 63 60 59 57 54 50 46 46 53 54 54 52 50 48 47 49 52 55 60 63 69 72 65 59 60 67 73
72 75 70 70 65 65 62 59 62 66 72 73 73 69 65 71 70 68 68 69 63 55 51 51 55 56 52 52 52 52 46 51 56 56 60 63 69 73 71 61 60 63 68 74
74 73 72 70 63 60 55 48 47 49 55 60 67 63 70 74 74 72 73 72 65 61 60 60 59 54 50 52 51 47 51 59 60 59 62 66 75 78 65 59 65 69 73 74
75 72 74 74 64 72 41 42 44 48 51 56 62 66 70 72 74 76 79 78 72 69 68 65 58 52 51 52 48 50 60 64 63 60 65 74 81 75 65 61 69 75 77 81
67 72 74 74 72 53 43 43 43 46 48 50 54 59 65 70 75 78 77 75 73 72 71 68 60 53 49 47 44 59 69 70 65 64 72 79 80 73 64 64 72 78 80 80
59 67 74 74 74 69 51 49 46 46 53 47 49 56 64 68 74 75 72 71 71 70 69 69 63 54 44 40 47 67 74 74 69 70 79 82 79 70 68 71 70 75 80 83
64 68 68 71 71 65 54 52 55 57 58 49 49 51 58 62 70 75 70 72 74 70 69 68 66 56 42 32 51 73 80 78 74 76 81 85 81 70 73 74 74 76 80 85
63 67 67 71 76 73 50 54 58 54 49 48 49 53 53 53 58 63 76 75 74 73 74 70 67 53 37 30 51 79 84 80 79 82 82 88 84 78 77 77 79 75 78 83
54 59 62 66 63 53 50 50 48 48 49 52 53 52 52 54 55 56 65 70 71 68 75 74 66 53 31 28 48 81 84 84 86 87 84 90 90 86 78 79 81 79 76 78
44 43 48 47 52 53 51 51 51 48 48 51 52 53 56 51 48 50 52 64 73 74 74 75 64 49 29 26 47 78 86 87 91 90 89 88 93 91 83 82 83 84 75 75
36 38 38 41 40 38 39 44 52 53 51 50 52 50 50 49 48 47 49 52 68 74 71 67 58 43 28 24 46 74 87 91 94 94 90 87 87 92 88 85 86 87 85 80
29 27 30 28 25 26 25 21 28 36 42 50 54 54 52 45 41 44 44 43 49 67 64 60 52 40 27 22 45 73 89 94 95 97 93 90 89 88 87 88 85 79 77 73

GFSCGP_prec_cthk_219.txt.gz
RH
24 24 24 20 23 20 20 20 19 19 25 27 27 23 18 14 15 15 16 15 17 18 18 19 19 20 20 21 21 21 21 20 19 18 17 17 17 17 17 18 18 19 19 19
28 25 25 24 23 23 24 24 24 21 25 26 28 29 25 17 14 15 14 15 18 19 19 19 20 21 21 22 22 22 22 20 20 19 18 18 17 17 18 20 21 22 22 23
28 27 30 29 29 29 27 26 23 22 25 27 27 25 24 23 18 15 15 14 15 17 18 20 20 21 22 22 22 21 20 21 21 20 19 18 18 18 19 22 24 25 26 26
32 31 31 30 30 31 28 27 27 26 29 33 27 28 22 22 25 19 16 17 17 18 20 22 24 22 24 25 22 20 21 22 22 21 20 19 18 17 19 22 25 27 27 27
30 35 35 33 30 30 31 33 33 33 34 33 30 37 21 24 25 24 22 20 19 23 22 25 27 29 30 26 23 23 25 25 23 22 20 20 20 20 22 27 28 28 28 28
38 38 37 35 36 35 35 31 34 39 40 46 32 31 25 21 23 24 24 24 25 29 32 34 35 36 32 28 28 29 27 26 26 24 22 22 22 22 24 28 28 28 28 28
41 41 39 40 39 38 35 36 45 46 52 44 34 35 25 18 18 23 25 27 27 31 38 40 39 37 31 31 32 33 29 28 27 26 25 24 24 25 27 30 32 31 28 27
50 43 44 44 42 40 40 37 44 40 44 41 41 37 24 25 25 22 23 27 31 34 37 40 40 36 35 34 32 32 31 31 29 28 27 25 26 28 31 35 37 37 34 32
55 49 47 48 48 45 47 48 39 46 48 53 39 32 27 29 30 30 29 29 33 37 39 41 41 43 43 41 41 38 35 32 30 29 28 27 29 32 34 37 41 39 38 37
54 53 52 55 54 52 48 45 52 53 55 57 44 37 36 31 33 34 37 37 36 37 39 41 44 49 48 48 45 43 40 36 34 34 33 32 32 36 40 43 44 41 41 41
60 57 56 60 59 55 56 53 50 51 53 55 50 38 35 35 36 38 41 45 45 44 44 45 47 51 52 54 52 50 44 40 39 40 39 38 40 43 45 46 46 45 43 43
64 68 67 59 56 55 54 54 51 58 55 59 56 47 37 39 40 42 43 49 53 54 53 52 52 60 63 60 58 54 48 44 43 42 41 42 45 46 48 49 48 46 46 46
73 76 79 67 63 60 62 57 56 56 57 61 63 47 40 43 44 44 48 54 58 60 62 60 62 63 64 62 59 56 50 47 45 43 44 45 48 52 52 50 48 48 47 50
79 79 72 66 62 64 64 60 61 60 68 59 52 49 45 48 48 48 50 57 62 63 66 68 68 67 67 67 63 58 54 52 50 44 47 50 53 55 52 51 51 51 52 54
87 86 83 78 72 70 70 65 64 64 62 65 52 54 52 55 57 56 53 57 63 68 71 71 72 71 70 69 65 63 62 57 51 49 54 55 58 55 54 54 54 56 58 53
93 93 89 84 78 79 80 70 67 68 65 63 59 55 51 55 60 62 62 62 63 69 71 71 72 73 72 70 69 68 64 59 55 52 58 62 60 57 58 60 60 60 52 57
98 98 97 91 80 75 75 60 56 55 60 61 60 52 51 49 51 54 61 65 68 71 74 73 72 73 73 72 70 68 63 60 58 59 64 66 60 62 64 64 65 55 57 62
96 97 96 95 85 88 59 59 56 57 57 53 52 52 49 49 51 54 58 64 70 74 76 80 81 73 74 71 70 70 66 62 65 65 70 69 65 67 68 69 63 57 63 65
97 96 97 96 93 72 61 59 58 61 57 52 53 50 50 51 53 57 62 66 68 74 76 76 75 72 75 76 72 69 68 67 71 70 75 70 71 73 72 72 64 63 68 71
92 97 96 93 91 82 64 61 57 59 66 52 50 51 53 55 59 58 58 61 62 66 66 66 70 74 74 69 69 69 68 71 73 77 77 74 78 78 80 74 70 67 69 72
89 88 87 87 86 75 63 62 64 66 54 46 48 51 52 56 59 57 55 55 56 60 63 65 71 80 80 73 68 67 68 68 73 83 78 81 83 86 86 78 74 72 73 74
78 81 82 82 88 85 59 58 61 51 49 50 51 54 56 56 56 56 58 57 54 55 57 59 65 69 84 84 72 65 61 58 68 80 86 88 88 90 90 84 79 77 77 74
78 74 73 69 66 52 49 46 47 46 47 48 48 48 52 54 56 57 58 59 57 56 56 59 59 66 76 80 74 67 57 53 54 85 89 92 94 92 93 92 85 77 73 72
53 54 57 53 54 55 49 47 50 51 49 47 47 49 51 53 55 55 55 57 56 57 57 58 60 62 74 78 73 71 61 47 41 87 93 96 97 93 93 95 88 77 75 76
47 43 41 42 42 40 40 42 43 43 44 44 44 46 49 52 52 52 50 48 48 54 59 57 54 58 66 74 80 69 63 43 39 86 97 98 98 95 94 95 90 81 80 77
35 34 36 36 29 30 28 25 27 30 31 32 34 36 39 42 43 45 45 47 48 47 49 51 50 50 51 56 72 67 62 39 42 80 98 98 98 97 94 93 90 82 79 73